Regional Weather Roundup
Issued by NWS Bismarck, ND

Current Version | Previous Version | Text Only | Print | Product List | Glossary On
Versions: 1 2 3 4 5 6 7 8 9 10 11 12 13 14 15 16 17 18 19 20 21 22 23 24 25 26 27 28 29 30 31 32 33 34 35 36 37 38 39 40 41 42 43 44 45 46 47 48 49 50
000
ASUS43 KBIS 181910
RWRBIS

NWR BROADCAST TEXT
NATIONAL WEATHER SERVICE BISMARCK ND
100 PM CST TUE DEC 18 2018

NOTE: "FAIR" INDICATES FEW OR NO CLOUDS BELOW 12,000 FEET WITH NO
SIGNIFICANT WEATHER AND/OR OBSTRUCTIONS TO VISIBILITY.


CITY           SKY/WX    TMP DP  RH WIND       PRES   REMARKS
WILLISTON      MOSUNNY   39  28  64 SW6       29.73F
MINOT          SUNNY     50  28  42 SW12      29.71F
MINOT AFB      SUNNY     47  30  51 SW12      29.69F
BISMARCK       SUNNY     46  30  53 SW3       29.79F
DICKINSON      MOSUNNY   54  29  38 SW13      29.73F
GARRISON         N/A     45  30  55 SW6       29.74F
HETTINGER ARPT SUNNY     51  28  41 SW8       29.80F
JAMESTOWN      SUNNY     45  30  55 W7        29.76F
CARRINGTON     FAIR      46  32  57 W8        29.77F
HAZEN          FAIR      46  32  57 W7        29.77F
LINTON           N/A     46  28  49 W6        29.82F
MANDAN         FAIR      46  36  66 SW6       29.78F
OAKES          FAIR      43  36  75 S5        29.80F
RUGBY          FAIR      36  32  87 SW8       29.72F
STANLEY        FAIR      45  32  61 VRB6      29.72F
TIOGA          FAIR      39  32  75 W7        29.73F
WATFORD CITY   FAIR      46  30  53 SW7       29.73F
$$

CITY           SKY/WX    TMP DP  RH WIND       PRES   REMARKS
GRAND FORKS    MOSUNNY   35  26  69 SW9       29.75F
GRAND FORKS AF SUNNY     40  28  64 SW3       29.75S
DEVILS LAKE    PTSUNNY   35  29  78 W12       29.74F
FARGO          SUNNY     35  28  75 S9        29.79F
CANDO          FAIR      37  30  75 W13       29.73F
CAVALIER       FAIR      36  27  69 SW8       29.71F
GRAFTON        FAIR      34  27  75 SW8       29.76S
GWINNER          N/A     41  32  70 SW12      29.80F
LANGDON        FAIR      25  25 100 SW7       29.71F WCI  17
ROLLA          FAIR      41  28  60 SW6       29.69F
WALHALLA         N/A     37  28  70 W10       29.70F
$$

CITY           SKY/WX    TMP DP  RH WIND       PRES   REMARKS
ABERDEEN       MOSUNNY   42  31  64 SW6       29.83F
MOBRIDGE       SUNNY     48  30  49 S3        29.79F
BUFFALO          N/A     48  31  51 S5        29.77F
RAPID CITY     SUNNY     54  24  31 S7        29.83F
GLASGOW        PTSUNNY   36  31  82 SE9       29.64F
SIDNEY         MOSUNNY   42  29  59 S8        29.74F
WOLF POINT     PTSUNNY   33  29  85 NE5       29.69F
GLENDIVE       MOSUNNY   45  28  51 S13       29.74F
MILES CITY     PTSUNNY   40  30  67 S10       29.74F
BAKER          SUNNY     54  31  41 S13       29.76F
$$

CITY           SKY/WX    TMP DP  RH WIND       PRES   REMARKS
BILLINGS       MOSUNNY   54  24  31 S10G16    29.74F
GREAT FALLS    CLOUDY    50  26  39 SW26G39   29.62F
REGINA         PTSUNNY   36  30  80 SW8       29.57F
ESTEVAN        SUNNY     39  28  65 SW10      29.68F
$$





USA.gov is the U.S. government's official web portal to all federal, state and local government web resources and services.